Change the Weather History Date:

Wednesday, August 14, 2013

  Actual Average Record
Temperature  
Mean Temperature 59 °F 65 °F  
Max Temperature 67 °F 75 °F 90 °F (1938)
Min Temperature 51 °F 55 °F 37 °F (1977)
Degree Days  
Heating Degree Days 6 2  
Month to date heating degree days 60 28  
Since 1 June heating degree days 256 277  
Since 1 July heating degree days 110 97  
Cooling Degree Days 0 2  
Month to date cooling degree days 2 39  
Year to date cooling degree days 166 152  
Since 1 June cooling degree days 157 147  
Growing Degree Days 9 (Base 50)    
Moisture  
Dew Point 48 °F    
Average Humidity 69    
Maximum Humidity 93    
Minimum Humidity 45    
Precipitation  
Precipitation 0.00 in 0.10 in 0.96 in (2002)
Month to date precipitation 2.14 1.43  
Year to date precipitation 25.39 17.43  
Sea Level Pressure  
Sea Level Pressure 30.09 in    
Wind  
Wind Speed 9 mph (WNW)    
Max Wind Speed 18 mph    
Max Gust Speed 25 mph    
Visibility 10 miles    
Events      
T = Trace of Precipitation, MM = Missing Value Source: NWS Daily Summary

Daily Weather History Graph

Daily Weather History Graph

Search for Another Location

Airport or City:

Trip Planner

Search our weather history database for the weather conditions in past years. The results will help you decide how hot, cold, wet, or windy it might be!

Date:

Astronomy

Aug. 14, 2013 Rise Set
Actual Time 6:34 AM EDT 8:48 PM EDT
Civil Twilight 6:01 AM EDT 9:21 PM EDT
Nautical Twilight 5:20 AM EDT 10:02 PM EDT
Astronomical Twilight 4:34 AM EDT 10:48 PM EDT
Moon 3:03 PM EDT (8/14) No Moon Set
Length of Visible Light 15h 19m
Length of Day
14h 13m
First Quarter, 52% of the Moon is Illuminated
Aug 14
First Quarter
Aug 20
Full
Aug 28
Last Quarter
Sep 5
New
Sep 12
First Quarter

Hourly Weather History & Observations

Time (EDT) Temp. Dew Point Humidity Pressure Visibility Wind Dir Wind Speed Gust Speed Precip Events Conditions
12:55 AM 55.0 °F 51.1 °F 86% 30.09 in 10.0 mi NW 8.1 mph - N/A   Clear
1:55 AM 55.0 °F 51.1 °F 86% 30.08 in 10.0 mi NW 6.9 mph - N/A   Clear
2:55 AM 54.0 °F 51.1 °F 90% 30.08 in 10.0 mi NW 9.2 mph - N/A   Clear
3:55 AM 55.0 °F 51.1 °F 86% 30.08 in 10.0 mi NNW 5.8 mph - N/A   Clear
4:55 AM 53.1 °F 50.0 °F 89% 30.09 in 10.0 mi WNW 4.6 mph - N/A   Clear
5:55 AM 52.0 °F 48.9 °F 89% 30.10 in 10.0 mi WNW 4.6 mph - N/A   Clear
6:55 AM 53.1 °F 51.1 °F 93% 30.12 in 10.0 mi WNW 8.1 mph - N/A   Clear
7:55 AM 57.0 °F 52.0 °F 83% 30.12 in 10.0 mi WNW 8.1 mph - N/A   Clear
8:55 AM 57.9 °F 51.1 °F 78% 30.13 in 10.0 mi WNW 10.4 mph - N/A   Partly Cloudy
9:55 AM 61.0 °F 51.1 °F 70% 30.13 in 10.0 mi WNW 10.4 mph - N/A   Clear
10:55 AM 63.0 °F 48.9 °F 60% 30.13 in 10.0 mi NW 9.2 mph 19.6 mph N/A   Scattered Clouds
11:55 AM 63.0 °F 48.0 °F 58% 30.12 in 10.0 mi WNW 10.4 mph - N/A   Scattered Clouds
12:55 PM 64.9 °F 48.0 °F 54% 30.11 in 10.0 mi NW 10.4 mph - N/A   Scattered Clouds
1:55 PM 64.0 °F 48.0 °F 56% 30.10 in 10.0 mi WNW 13.8 mph 21.9 mph N/A   Scattered Clouds
2:55 PM 66.0 °F 45.0 °F 47% 30.10 in 10.0 mi NW 13.8 mph 23.0 mph N/A   Clear
3:55 PM 66.0 °F 46.0 °F 48% 30.09 in 10.0 mi NW 12.7 mph 18.4 mph N/A   Scattered Clouds
4:55 PM 66.0 °F 45.0 °F 47% 30.08 in 10.0 mi West 15.0 mph 19.6 mph N/A   Clear
5:55 PM 66.0 °F 44.1 °F 45% 30.08 in 10.0 mi WNW 13.8 mph 21.9 mph N/A   Clear
6:55 PM 64.9 °F 46.0 °F 50% 30.07 in 10.0 mi NW 11.5 mph - N/A   Clear
7:55 PM 63.0 °F 46.0 °F 54% 30.07 in 10.0 mi NW 9.2 mph - N/A   Clear
8:55 PM 60.1 °F 46.9 °F 62% 30.07 in 10.0 mi NW 5.8 mph - N/A   Mostly Cloudy
9:55 PM 57.9 °F 48.0 °F 70% 30.07 in 10.0 mi WNW 4.6 mph - N/A   Clear
10:55 PM 55.0 °F 46.9 °F 74% 30.07 in 10.0 mi WSW 4.6 mph - N/A   Clear
11:55 PM 53.1 °F 46.0 °F 77% 30.07 in 10.0 mi SW 3.5 mph - N/A   Clear